Maryland Science Center, MD

12:12 AM EST on December 14, 2019 (GMT -0500)
Maryland Science Center

Weather History for KDMH - October, 2019

Change the Weather History Date:

Tuesday, October 15, 2019

  Actual Average Record
Temperature  
Mean Temperature 61 °F 60 °F  
Max Temperature 71 °F 69 °F 82 °F (2008)
Min Temperature 53 °F 52 °F 46 °F (1999)
Degree Days  
Heating Degree Days 4 6  
Month to date heating degree days 63  
Since 1 July heating degree days 81  
Cooling Degree Days 0 1  
Month to date cooling degree days 30  
Year to date cooling degree days 1655  
Growing Degree Days 11 (Base 50)    
Moisture  
Dew Point 44 °F    
Average Humidity 54    
Maximum Humidity 81    
Minimum Humidity 36    
Precipitation  
Precipitation 0.00 in 0.10 in 0.99 in (2014)
Month to date precipitation 1.62  
Year to date precipitation 33.08  
Sea Level Pressure  
Sea Level Pressure 30.12 in    
Wind  
Wind Speed - (North)    
Max Wind Speed -    
Max Gust Speed -    
T = Trace of Precipitation, MM = Missing Value Source: NWS Daily Summary

Daily Weather History Graph

Daily Weather History Graph

Search for Another Location

Airport or City:

Astronomy

Oct. 15, 2019 Rise Set
Actual Time 7:15 AM EDT 6:27 PM EDT
Civil Twilight 6:48 AM EDT 6:54 PM EDT
Nautical Twilight 6:17 AM EDT 7:25 PM EDT
Astronomical Twilight 5:46 AM EDT 7:56 PM EDT
Moon 7:47 PM EDT (10/15) 8:44 AM EDT (10/15)
Length of Visible Light 12h 05m
Length of Day
11h 11m
Full, 97% of the Moon is Illuminated
Oct 15
Full
Oct 21
Last Quarter
Oct 27
New
Nov 4
First Quarter
Nov 12
Full

Hourly Weather History & Observations

Time (EDT) Temp. Dew Point Humidity Pressure Visibility Wind Dir Wind Speed Gust Speed Precip Events Conditions
12:54 AM 60.1 °F 42.1 °F 51% 30.09 in - North - - N/A   Unknown
2:54 AM 57.0 °F 42.1 °F 57% 30.12 in - North - - N/A   Unknown
3:54 AM 55.0 °F 43.0 °F 64% 30.12 in - North - - N/A   Unknown
4:54 AM 54.0 °F 42.1 °F 64% 30.13 in - North - - N/A   Unknown
5:54 AM 53.1 °F 42.1 °F 66% 30.14 in - North - - N/A   Unknown
6:54 AM 54.0 °F 42.1 °F 64% 30.16 in - North - - N/A   Unknown
7:54 AM 55.9 °F 42.1 °F 60% 30.18 in - North - - N/A   Unknown
8:54 AM 57.0 °F 42.1 °F 57% 30.20 in - North - - N/A   Unknown
9:54 AM 60.1 °F 44.1 °F 55% 30.20 in - North - - N/A   Unknown
10:54 AM 64.0 °F 44.1 °F 48% 30.19 in - North - - N/A   Unknown
11:54 AM 64.9 °F 46.0 °F 50% 30.18 in - North - - N/A   Unknown
12:54 PM 68.0 °F 45.0 °F 43% 30.17 in - North - - N/A   Unknown
2:54 PM 69.1 °F 41.0 °F 36% 30.12 in - North - - N/A   Unknown
3:54 PM 66.9 °F 41.0 °F 39% 30.10 in - North - - N/A   Unknown
4:54 PM 66.0 °F 39.0 °F 37% 30.08 in - North - - N/A   Unknown
5:54 PM 64.9 °F 39.9 °F 40% 30.07 in - North - - N/A   Unknown
6:54 PM 64.0 °F 42.1 °F 45% 30.06 in - North - - N/A   Unknown
7:54 PM 63.0 °F 43.0 °F 48% 30.06 in - North - - N/A   Unknown
8:54 PM 63.0 °F 46.0 °F 54% 30.05 in - North - - N/A   Unknown
9:54 PM 61.0 °F 48.9 °F 64% 30.05 in - North - - N/A   Unknown
10:54 PM 61.0 °F 52.0 °F 72% 30.04 in - North - - N/A   Unknown
11:54 PM 59.0 °F 53.1 °F 81% 30.03 in - North - - N/A   Unknown